This is the latest recevied weather packets stored in our database for station/object SR5MRF. If no packets are shown the sender has not sent any weather packets the latest 10 day(s).
| Time | Temp. | Humidity | Pressure | Rain* | Wind** | Luminosity | Snow |
|---|---|---|---|---|---|---|---|
| 1777805745 | 28.33° C | 25% | 1014.5 hPa | 0 mm | - | - | - |
| 1777805325 | 28.89° C | 25% | 1014.5 hPa | 0 mm | - | - | - |
| 1777804905 | 28.89° C | 25% | 1014.6 hPa | 0 mm | - | - | - |
| 1777804725 | 28.89° C | 25% | 1014.6 hPa | 0 mm | - | - | - |
| 1777804485 | 29.44° C | 25% | 1014.8 hPa | 0 mm | - | - | - |
| 1777804125 | 29.44° C | 25% | 1014.9 hPa | 0 mm | - | - | - |
| 1777804065 | 29.44° C | 25% | 1014.9 hPa | 0 mm | - | - | - |
| 1777803645 | 29.44° C | 25% | 1014.9 hPa | 0 mm | - | - | - |
| 1777803225 | 30° C | 24% | 1015.3 hPa | 0 mm | - | - | - |
| 1777802926 | 30° C | 25% | 1015.1 hPa | 0 mm | - | - | - |
| 1777802805 | 30° C | 25% | 1015.3 hPa | 0 mm | - | - | - |
| 1777802385 | 30° C | 25% | 1015.1 hPa | 0 mm | - | - | - |
| 1777801965 | 30° C | 25% | 1015.3 hPa | 0 mm | - | - | - |
| 1777801726 | 30° C | 25% | 1015.3 hPa | 0 mm | - | - | - |
| 1777801545 | 30° C | 25% | 1015.3 hPa | 0 mm | - | - | - |
| 1777801125 | 29.44° C | 26% | 1015.3 hPa | 0 mm | - | - | - |
| 1777800705 | 29.44° C | 26% | 1015.4 hPa | 0 mm | - | - | - |
| 1777800526 | 29.44° C | 26% | 1015.4 hPa | 0 mm | - | - | - |
| 1777800285 | 29.44° C | 27% | 1015.5 hPa | 0 mm | - | - | - |
| 1777799926 | 28.89° C | 27% | 1015.6 hPa | 0 mm | - | - | - |
| 1777799865 | 28.89° C | 27% | 1015.7 hPa | 0 mm | - | - | - |
| 1777799445 | 28.89° C | 27% | 1015.6 hPa | 0 mm | - | - | - |
| 1777799326 | 28.89° C | 26% | 1015.5 hPa | 0 mm | - | - | - |
| 1777799025 | 29.44° C | 27% | 1015.7 hPa | 0 mm | - | - | - |
| 1777798605 | 29.44° C | 27% | 1015.8 hPa | 0 mm | - | - | - |
* Rain latest hour (hover to see other rain measurements)
** Current wind speed in m/s (hover to see current wind gust speed)